Lid_Strength_Index
-1 -1 -1 -0 -0 -1 -1 -1 -1 -1 -1 -0 0 1 2 2 2 6 9 6 6 1 2 8 8 9 10 11 8 9 12 14 12 12 11 10 10 10 9 8 7 6 5 4 3
-0 -1 -1 -1 -0 -0 -1 -1 -1 -1 -0 -0 0 1 2 2 6 8 5 1 2 1 8 9 10 10 12 12 11 11 13 12 10 11 10 10 10 9 9 9 8 8 5 3 3
0 -0 -1 -1 -1 -1 -1 -1 -1 -0 -0 0 1 1 2 3 8 9 2 2 1 1 7 8 8 10 11 13 13 10 12 11 10 10 9 9 10 10 10 11 8 8 6 4 4
1 -0 -0 -1 -1 -1 -1 -1 -1 -0 0 1 1 1 2 5 12 8 2 1 1 5 8 9 10 11 12 13 13 13 9 11 9 9 9 10 9 11 10 10 7 5 4 4 4
1 1 0 0 -1 -1 -1 -1 -1 -0 0 1 1 1 5 9 10 5 1 0 3 7 9 10 11 11 12 12 13 13 11 11 10 10 10 9 10 10 10 9 6 4 4 5 4
1 1 0 1 1 -1 -1 -1 -1 -0 0 1 1 1 7 13 7 4 3 4 6 7 9 9 10 9 11 11 13 13 10 11 11 11 10 10 11 10 10 9 5 5 5 5 4
1 1 1 1 1 1 -0 -1 -1 -0 -0 -0 1 5 9 10 6 4 3 5 5 7 8 9 9 11 11 12 11 13 14 12 12 11 11 11 12 11 10 8 6 6 5 5 4
1 1 1 0 1 1 1 -0 -1 -0 -1 -1 -0 5 10 6 6 5 6 7 7 7 8 8 9 10 11 12 13 14 16 15 11 11 11 11 13 11 10 10 8 6 6 5 5
1 1 0 0 0 1 1 1 0 -1 -1 -1 4 8 11 4 7 6 6 8 8 9 8 8 9 11 12 14 16 16 19 18 13 11 11 12 13 12 11 10 10 9 8 6 6
1 1 0 0 0 1 1 1 1 -0 1 2 4 10 9 10 7 6 7 7 9 10 11 11 12 14 16 17 19 18 18 17 14 12 13 14 13 11 12 12 11 12 12 11 10
2 1 0 0 0 -0 1 3 6 8 6 11 11 12 10 8 7 8 7 8 9 11 14 13 16 18 16 15 15 15 16 16 13 12 13 13 13 12 12 13 13 13 13 12 11
2 1 0 -0 -0 -0 3 7 8 8 11 9 9 10 8 7 10 9 7 10 12 14 13 14 17 14 13 13 14 16 17 17 13 12 13 15 14 12 13 12 12 12 12 12 11
3 1 -0 -0 -0 1 5 7 5 7 11 10 9 10 9 8 10 10 8 10 12 14 14 15 14 12 13 15 16 16 17 16 14 13 14 15 15 15 13 13 12 12 10 10 10
2 2 -0 -0 2 3 6 4 4 7 14 13 11 10 8 7 10 7 8 9 12 13 14 14 13 13 15 15 15 16 13 14 14 16 18 17 21 17 15 14 13 11 10 10 11
2 2 -0 0 3 5 5 3 5 7 21 11 11 7 8 10 10 10 8 9 12 13 13 15 15 15 15 14 13 14 12 13 14 16 17 18 19 17 15 14 13 12 11 10 10
2 1 0 1 2 2 2 3 6 14 20 14 11 12 12 11 10 9 9 9 10 12 13 13 12 12 13 12 12 12 13 14 15 16 20 18 19 19 16 14 13 12 12 11 12
2 1 1 0 4 2 2 6 14 18 12 15 15 12 13 14 13 11 12 13 14 16 16 15 15 13 12 13 13 14 15 19 20 20 21 17 19 16 14 13 13 12 13 13 13
3 1 2 1 1 1 4 11 18 16 15 12 13 12 14 13 13 12 12 14 13 14 16 17 19 15 13 13 14 14 14 18 22 21 20 17 20 16 13 12 12 13 13 12 11
3 3 4 1 1 2 8 15 16 15 12 13 13 15 15 13 13 14 14 15 13 13 16 17 17 13 13 12 11 14 16 13 18 23 20 19 17 14 13 13 14 13 13 12 12
5 5 5 1 2 5 11 14 14 11 10 11 15 14 17 15 15 15 15 13 13 12 11 13 16 13 13 12 12 14 12 16 18 23 23 20 19 18 15 14 13 14 13 12 12
6 9 6 4 3 9 14 13 12 10 10 12 14 14 15 15 14 15 15 13 12 12 11 12 13 15 13 14 15 15 15 15 15 18 21 23 20 16 14 13 14 13 14 13 11
9 13 6 2 10 11 13 11 9 11 9 10 11 12 13 13 14 14 15 13 10 10 13 12 13 16 15 14 12 12 14 13 17 19 19 19 19 14 14 13 13 13 13 13 12
10 11 7 6 14 14 11 11 10 11 10 10 12 11 11 12 14 13 13 11 10 11 12 11 16 20 17 14 14 15 15 13 14 16 20 21 19 15 14 15 14 13 13 13 13
10 14 13 12 12 12 12 12 12 9 10 9 10 10 12 12 12 13 13 11 10 11 9 9 14 16 18 17 15 17 15 14 13 16 18 18 17 16 15 15 13 13 12 12 12
11 13 12 15 13 12 11 11 13 13 10 9 11 11 13 14 13 14 12 12 11 9 10 11 19 16 16 15 14 15 15 13 15 15 17 16 17 15 15 14 14 13 12 12 12
11 13 13 12 12 12 12 12 12 12 11 12 12 11 12 14 13 15 13 13 13 12 12 12 16 15 18 15 15 17 15 14 14 14 15 15 16 13 13 14 14 13 12 11 11
9 11 13 10 11 13 12 12 12 11 11 9 10 11 11 12 11 10 9 9 11 12 13 13 16 17 19 16 16 18 16 15 15 14 14 16 13 13 14 13 13 12 12 11 11